Theta_e
325 325 325 325 325 325 325 326 326 326 326 327 327 327 327 327 327 323 316 321 326 360 362 355 337 337 339 335 336 335 315 311 312 313 317 326 324 329 331 329 330 333 332 333 338
324 324 324 324 324 324 325 325 325 325 325 326 326 326 327 327 322 321 335 351 362 364 347 343 333 333 327 331 333 323 314 315 321 319 320 325 325 326 325 324 328 331 335 337 340
323 323 323 323 323 324 324 324 324 325 324 325 325 326 327 326 321 326 353 355 364 356 348 341 339 334 323 328 330 327 317 326 324 323 326 325 325 328 323 321 328 328 332 336 337
322 322 322 322 322 323 323 323 323 323 323 324 325 326 327 323 310 327 361 356 364 349 342 338 331 323 320 319 328 323 328 330 330 326 326 325 327 324 325 326 331 335 336 337 336
321 321 321 321 321 322 323 323 322 322 322 324 325 326 320 309 315 350 362 363 356 341 335 332 327 324 320 324 326 324 326 326 330 326 326 328 325 324 324 331 335 336 337 336 336
319 320 320 320 321 321 321 321 320 320 322 323 325 327 315 307 334 354 344 350 346 336 332 334 331 330 324 324 324 323 326 322 325 324 327 325 325 326 327 332 333 334 334 335 335
318 319 319 320 319 320 320 319 319 319 321 324 326 325 310 309 338 347 340 338 343 340 330 333 335 333 331 325 325 323 316 320 321 325 323 326 321 320 327 331 331 332 333 335 336
318 318 318 318 318 319 318 317 317 320 323 324 327 320 302 325 343 342 341 340 344 341 337 341 340 334 328 329 321 316 316 310 319 323 324 320 310 322 327 327 327 330 332 334 335
317 317 317 318 318 317 316 316 320 323 326 327 315 304 302 335 330 334 336 330 338 341 343 346 337 327 325 316 313 312 306 309 315 322 322 317 311 322 326 324 325 328 329 331 332
317 317 317 317 316 315 314 316 326 324 325 325 320 302 308 313 326 332 335 336 331 331 330 330 324 318 312 312 304 308 306 309 309 317 321 316 313 321 324 323 323 324 326 327 327
317 316 316 316 315 313 310 307 305 303 307 300 297 302 308 313 333 328 333 330 331 325 318 324 313 309 313 315 317 314 310 309 313 319 316 315 314 319 322 323 322 320 323 324 325
316 316 315 315 314 313 306 307 306 307 301 306 307 305 306 307 306 313 334 324 323 317 316 310 308 316 316 314 314 312 309 307 312 318 315 313 313 319 321 321 323 322 322 324 325
315 315 314 313 312 308 306 307 309 305 298 303 305 304 307 308 306 306 329 324 320 315 314 309 312 317 314 311 307 304 305 307 308 315 314 311 309 315 320 322 323 324 325 325 326
315 314 313 311 305 304 306 310 308 305 292 297 300 306 305 307 304 311 323 314 309 306 306 309 313 314 310 306 305 300 308 311 312 308 303 310 300 307 315 318 321 322 323 324 326
314 313 312 309 299 301 306 307 307 304 285 301 300 307 303 303 302 307 312 312 308 309 308 306 307 307 304 305 307 305 308 305 306 306 303 305 301 305 312 313 317 321 323 325 326
313 312 310 305 301 305 306 306 304 292 285 298 300 299 298 300 302 306 307 310 309 305 303 306 307 306 306 309 309 309 304 301 298 298 296 301 302 301 307 312 317 321 323 325 326
311 309 306 308 300 305 306 302 291 286 297 297 296 297 294 296 299 299 303 301 300 296 297 301 302 306 308 303 305 303 298 293 293 292 294 296 302 305 309 316 319 320 321 325 326
308 307 307 309 306 306 301 295 286 294 292 297 297 295 294 297 296 298 296 297 298 298 294 294 296 301 305 305 301 300 298 294 290 289 293 297 297 303 308 311 319 323 323 324 325
307 305 305 308 310 303 297 287 287 292 298 296 296 292 293 295 296 296 294 294 296 294 293 293 295 303 307 307 307 299 297 298 293 288 290 294 299 306 308 309 314 319 320 321 324
306 305 307 308 308 299 292 288 290 297 299 296 289 292 290 293 294 293 292 296 297 297 295 294 292 297 302 304 304 302 304 295 293 290 287 293 295 299 305 307 314 316 318 320 324
307 303 309 307 302 298 291 290 295 300 301 294 292 291 292 293 292 291 293 297 303 301 295 297 293 295 297 297 296 297 297 295 295 292 290 289 295 303 306 308 309 314 317 319 321
305 300 311 304 298 289 291 292 299 299 299 297 297 295 293 295 292 292 295 298 304 301 297 293 290 289 295 299 299 299 295 295 292 290 291 291 295 307 308 308 308 314 316 319 323
303 302 307 303 292 290 292 296 297 298 298 298 298 297 297 293 292 294 298 303 304 302 299 301 291 287 291 294 297 295 294 298 293 291 291 292 295 305 305 307 308 309 313 317 320
298 296 296 295 292 291 290 292 295 301 298 300 298 299 296 294 295 294 296 302 304 303 320 305 290 290 288 290 293 293 296 296 293 289 289 293 298 303 304 305 307 307 309 311 319
295 293 293 287 289 291 290 292 295 295 299 299 296 298 295 290 293 293 296 298 302 309 301 298 293 288 292 297 296 296 296 296 294 294 292 295 296 301 303 305 307 308 310 315 318
294 294 295 291 291 290 291 290 294 296 296 295 295 298 297 291 293 291 295 293 296 298 295 296 293 293 293 299 297 296 299 298 298 299 296 296 296 302 305 305 305 307 310 311 314
297 297 295 292 291 287 288 292 294 296 296 300 298 296 296 297 299 300 299 299 298 295 295 293 292 290 288 294 295 293 297 298 297 299 298 296 300 306 309 311 311 312 311 311 313
Wind_Speed
16 16 15 15 14 14 14 14 15 16 15 13 11 10 8 8 7 2 6 9 8 16 11 5 1 4 4 3 2 3 4 1 3 5 4 11 5 4 2 9 2 2 5 7 14
18 17 17 16 15 14 14 13 15 17 15 14 11 8 9 6 2 7 9 11 19 15 8 6 1 3 2 2 1 3 3 4 4 3 6 14 9 8 4 7 3 7 9 16 14
19 19 18 17 17 16 15 14 15 16 15 13 13 7 7 3 3 6 11 17 20 9 6 2 3 2 2 3 2 1 3 1 3 2 11 12 6 3 11 3 4 9 14 15 14
19 19 19 19 18 19 17 15 14 17 15 13 11 9 7 2 1 3 14 17 21 9 9 4 1 1 1 0 3 3 7 5 3 5 9 12 11 5 8 5 8 15 18 15 12
20 19 20 20 20 19 19 17 13 15 15 12 9 8 2 3 7 3 16 18 14 7 7 4 2 1 4 2 3 4 5 4 5 4 6 10 4 6 7 6 12 14 14 15 13
20 20 19 19 20 20 19 19 17 14 15 10 7 5 1 3 2 7 14 15 10 6 5 3 2 3 5 3 3 4 4 8 4 7 7 8 4 6 3 10 13 15 14 13 13
21 20 20 19 21 22 21 20 21 15 12 10 5 3 1 10 0 5 7 5 4 3 5 4 4 1 4 4 2 2 5 5 3 4 4 9 1 5 7 11 14 14 13 12 13
21 22 21 22 22 22 22 20 21 16 7 5 4 2 7 2 5 6 3 6 7 1 2 1 1 2 3 6 4 4 3 2 5 5 4 5 6 5 10 13 12 13 11 12 12
22 22 22 22 22 22 22 22 15 5 4 8 2 1 9 6 3 4 2 5 9 3 1 3 2 1 4 2 6 5 3 6 2 7 6 5 3 5 9 10 11 12 13 13 11
21 22 22 22 21 21 22 13 4 4 1 3 2 2 3 4 5 6 2 5 5 6 3 2 4 2 4 5 4 6 4 6 5 7 6 7 5 5 12 11 12 12 13 13 12
22 22 23 22 21 19 11 0 6 5 3 7 4 3 5 4 7 3 4 4 3 4 4 3 2 6 10 8 7 5 5 10 9 6 6 12 7 9 14 11 11 9 10 11 13
23 23 23 23 21 19 2 7 6 4 8 7 10 7 6 4 6 3 8 6 4 6 5 3 7 11 5 3 7 6 7 9 5 5 8 6 9 6 14 19 18 15 12 13 11
23 23 23 23 24 4 2 6 3 6 2 9 5 4 5 8 9 7 10 6 6 4 7 7 9 2 1 4 6 4 5 5 5 2 3 5 6 5 8 11 12 13 12 11 13
23 22 21 26 3 3 2 1 5 5 6 9 4 6 3 6 8 7 10 6 2 10 6 7 5 6 4 5 5 4 5 5 3 4 3 2 7 6 9 16 14 17 14 15 14
22 20 16 8 3 0 3 6 4 4 3 3 1 1 1 7 4 4 6 3 8 7 6 11 4 6 6 7 7 10 3 6 5 4 3 1 3 6 5 10 17 20 18 18 16
22 17 12 2 1 7 8 7 4 8 5 8 3 5 1 3 4 5 3 4 2 4 3 7 1 4 8 5 7 1 2 6 5 3 2 6 7 5 6 10 14 16 19 19 14
22 15 4 1 2 6 5 5 7 4 5 9 6 6 2 6 5 6 4 4 5 3 4 4 4 4 3 3 1 4 6 4 5 5 7 2 3 12 9 7 15 21 20 21 15
23 4 6 4 5 7 4 7 2 1 3 4 5 5 5 7 3 8 3 4 6 3 2 2 10 4 2 7 4 4 8 6 4 4 6 2 6 11 7 9 11 14 17 19 15
12 2 2 4 0 1 7 5 3 3 4 6 9 6 7 6 6 6 6 3 3 2 2 4 8 3 6 7 8 3 3 4 6 3 2 4 9 12 4 4 2 10 8 14 15
3 3 4 8 2 5 8 2 1 4 5 2 1 5 5 7 7 6 3 4 7 2 2 2 5 3 5 0 1 6 6 2 3 2 5 5 6 9 11 13 2 7 10 11 15
4 5 4 7 4 8 5 2 4 4 2 1 2 2 1 3 2 3 5 2 7 10 1 1 3 8 3 2 2 5 2 3 6 6 7 3 8 8 7 8 10 7 9 12 12
3 4 5 4 7 2 2 4 5 6 6 5 3 4 2 2 3 2 3 2 7 4 3 4 4 4 9 6 4 4 3 5 6 5 3 5 9 6 9 7 7 11 9 11 15
4 2 5 4 4 4 6 5 2 9 7 7 5 4 4 2 2 4 4 5 8 6 3 3 2 5 12 7 6 6 3 3 3 3 6 6 8 1 6 9 7 10 12 9 12
4 4 7 7 2 3 6 4 7 7 3 5 4 5 5 4 4 1 3 3 8 5 7 3 1 7 8 6 2 5 3 3 3 1 2 6 5 10 9 9 12 10 11 10 10
6 2 3 5 5 4 2 4 4 8 6 7 3 6 4 4 6 2 2 6 7 3 4 4 3 4 5 7 4 6 9 7 7 7 5 6 7 13 6 9 10 8 9 7 7
5 4 5 1 3 5 4 3 3 5 3 6 4 8 5 4 3 4 2 3 7 4 2 2 4 1 5 9 7 8 11 9 9 7 8 8 10 5 8 8 9 14 7 8 9
3 2 3 3 4 2 2 2 4 6 6 6 5 7 5 2 8 11 11 11 9 6 3 4 4 3 6 4 7 11 10 9 6 6 5 5 2 11 15 16 15 18 16 11 10
Wind_Direction
355 354 355 351 346 340 336 327 318 313 314 317 317 319 309 307 317 148 234 212 177 155 117 141 35 38 25 42 134 170 64 189 214 161 186 145 125 144 136 135 127 157 143 150 135
351 349 349 347 342 337 331 326 316 312 316 316 313 317 305 320 237 232 231 157 140 135 129 157 140 181 241 165 218 85 108 232 210 196 160 164 131 153 118 152 70 79 94 124 135
349 346 343 342 338 333 328 324 315 311 314 315 311 314 298 311 225 235 165 152 145 135 120 124 138 220 46 10 345 353 210 237 290 160 140 152 133 138 128 276 182 160 147 145 151
347 343 339 336 335 328 324 321 317 311 314 313 310 312 309 199 282 163 149 148 148 138 129 145 161 4 105 343 212 314 250 241 317 144 146 163 140 120 155 216 155 159 159 156 167
343 340 336 331 327 324 320 319 318 312 311 307 304 306 292 314 258 107 131 141 146 139 149 160 136 151 305 203 178 196 280 289 189 149 121 129 151 161 202 130 146 148 158 172 179
340 336 333 328 324 321 320 316 316 315 307 300 294 296 306 305 341 147 134 145 149 132 150 112 8 232 275 257 167 222 253 297 143 159 140 141 154 121 169 132 147 158 172 180 188
338 334 329 326 323 321 317 316 314 313 298 288 271 244 122 237 260 124 124 138 99 156 123 211 250 304 315 289 308 297 4 357 14 126 144 105 98 218 150 149 159 175 180 187 198
334 332 329 326 323 320 316 316 310 304 282 242 224 235 250 355 137 127 128 88 89 124 178 284 132 255 228 291 14 59 79 313 211 164 168 108 252 203 156 156 175 183 193 196 202
329 328 327 324 322 320 317 316 306 291 123 149 142 186 270 147 169 170 160 121 119 120 278 276 97 228 314 55 13 19 267 247 246 194 139 170 253 195 165 169 188 195 199 206 207
327 326 325 324 322 322 319 315 86 112 33 209 255 27 282 249 146 131 230 105 125 139 119 91 36 24 15 69 266 251 238 272 234 208 179 175 231 170 184 176 202 204 205 206 208
328 326 324 323 323 324 336 2 14 357 43 204 214 268 311 297 125 120 168 92 80 81 175 178 62 257 259 206 248 263 238 246 261 200 155 211 202 194 189 203 210 218 217 216 211
329 326 325 322 323 320 283 95 127 189 309 257 259 271 284 10 340 121 144 139 139 211 139 62 230 246 240 245 251 280 284 279 284 191 174 176 234 206 186 205 205 213 224 224 230
328 326 325 322 319 328 326 152 78 125 125 293 226 221 210 144 221 238 161 147 175 176 200 188 241 63 238 301 268 248 222 270 239 89 47 106 301 199 220 219 215 223 226 233 226
327 326 326 324 346 316 264 25 309 181 56 280 276 277 134 130 273 186 194 150 202 217 195 221 271 230 240 231 211 317 252 254 161 105 220 139 269 243 202 212 212 222 217 224 221
324 324 324 333 285 27 323 334 318 62 21 327 290 14 99 157 236 256 184 117 198 202 120 247 219 222 265 240 166 236 323 294 323 123 86 167 310 268 153 224 219 222 223 225 212
324 319 321 126 149 255 325 322 56 45 259 331 344 347 123 256 288 324 148 57 157 179 260 252 275 208 216 229 203 278 148 42 43 77 5 222 171 269 182 212 219 221 222 230 210
325 316 222 293 211 324 315 48 44 125 339 319 325 7 346 333 357 27 146 108 181 158 279 338 245 265 192 283 146 86 54 334 2 15 226 5 113 247 248 235 218 208 204 219 207
329 353 185 232 302 343 51 51 123 322 315 314 328 326 54 3 20 339 45 92 27 87 128 190 301 191 173 203 206 188 155 161 231 221 256 68 237 263 234 246 243 214 205 203 203
328 23 52 302 282 105 71 65 187 215 287 317 328 42 343 355 18 41 32 27 36 51 173 173 271 263 196 224 142 207 190 198 108 23 44 241 287 300 264 277 278 204 194 190 200
52 34 354 318 13 56 73 183 232 221 311 0 310 31 6 335 28 30 25 2 333 333 75 239 305 266 299 8 238 157 171 82 11 216 268 285 285 249 310 297 236 207 201 199 198
47 51 271 341 59 44 99 224 287 259 304 336 350 7 41 360 299 311 7 23 357 312 19 74 115 289 346 193 161 351 269 54 124 145 174 232 265 224 257 282 297 253 206 185 197
54 51 324 8 49 41 59 313 307 321 1 16 74 14 3 336 308 297 111 28 328 296 12 333 155 254 239 278 311 181 206 155 136 250 207 161 263 270 253 297 298 286 231 218 201
65 288 327 45 71 353 318 320 353 7 8 12 14 23 11 342 303 57 25 304 353 29 18 318 320 353 344 357 2 53 326 96 113 74 207 146 269 200 292 304 269 260 267 214 204
64 26 342 38 45 79 358 335 324 358 74 356 16 56 4 345 11 309 329 337 329 334 339 115 171 184 204 225 206 295 268 320 120 121 226 223 268 305 317 326 323 304 274 263 202
26 46 170 342 349 360 347 353 353 356 354 356 45 44 340 293 336 335 6 326 302 262 9 92 243 215 252 265 225 239 252 240 228 215 194 259 209 273 337 305 290 290 297 269 221
73 25 1 293 294 346 3 25 18 352 314 312 52 336 326 258 172 275 318 221 229 281 62 339 252 132 284 294 284 263 257 236 228 258 245 235 274 240 301 305 319 321 309 266 254
352 360 96 303 338 35 283 58 318 325 269 250 5 335 266 259 307 267 238 241 242 232 236 225 195 152 248 245 303 300 255 206 205 212 209 216 283 354 341 334 320 308 302 297 283